This demonstration page uses our WeatherBlox Daily Observations layout. Learn more.

Left ArrowRight Arrow

Hourly Observations for October 15, 2021

Temp ( °F °C ) Dew Point ( °F °C ) Humidity (%) Winds ( mph kmh ) Pressure ( in mb ) Visibility ( mi km ) Precip ( " mm )
12:53 am 00:53 Clear 52 11.1 32 undefined 47 47 N N/A 30.11 1020 10 16 N/A
1:53 am 01:53 Clear 49 9.4 31 -0.6 50 50 N N/A 30.11 1020 10 16 N/A
2:53 am 02:53 Clear 48 8.9 29 -1.7 48 48 N N/A 30.11 1020 10 16 N/A
3:53 am 03:53 Clear 48 8.9 30 -1.1 50 50 N N/A 30.11 1020 10 16 N/A
4:53 am 04:53 Clear 48 8.9 30 -1.1 50 50 N N/A 30.11 1020 10 16 N/A
5:53 am 05:53 Clear 44 6.7 28 -2.2 53 53 N N/A 30.11 1020 10 16 N/A
6:53 am 06:53 Clear 45 7.2 28 -2.2 52 52 N N/A 30.14 1021 10 16 N/A
7:53 am 07:53 Sunny 46 7.8 26 -3.3 46 46 N N/A 30.16 1021 10 16 N/A
8:53 am 08:53 Sunny 50 10 26 -3.3 39 39 N N/A 30.19 1022 10 16 N/A
9:53 am 09:53 Sunny 61 16.1 27 -2.8 27 27 N N/A 30.19 1023 10 16 N/A
10:53 am 10:53 Sunny 66 18.9 25 -3.9 21 21 N N/A 30.19 1022 10 16 N/A
11:53 am 11:53 Sunny 70 21.1 24 -4.4 18 18 N N/A 30.18 1022 10 16 N/A
12:53 pm 12:53 Sunny 73 22.8 22 -5.6 15 15 SSW 3 6 30.16 1021 10 16 N/A
1:53 pm 13:53 Sunny 76 24.4 24 -4.4 14 14 VRB 3 6 30.13 1020 10 16 N/A
2:53 pm 14:53 Sunny 77 25 23 -5 13 13 SSW 5 7 30.11 1020 10 16 N/A
3:53 pm 15:53 Sunny 79 26.1 24 -4.4 13 13 SSW 5 7 30.09 1019 10 16 N/A
4:53 pm 16:53 Sunny 79 26.1 24 -4.4 13 13 N N/A 30.08 1019 10 16 N/A
5:53 pm 17:53 Sunny 77 25 25 -3.9 14 14 S 3 6 30.07 1018 10 16 N/A
6:53 pm 18:53 Clear 70 21.1 29 -1.7 22 22 N N/A 30.06 1018 10 16 N/A
7:53 pm 19:53 Clear 64 17.8 28 -2.2 26 26 N N/A 30.08 1019 10 16 N/A
8:53 pm 20:53 Clear 60 15.6 27 -2.8 28 28 NNE 5 7 30.09 1019 10 16 N/A
9:53 pm 21:53 Clear 57 13.9 29 -1.7 34 34 N N/A 30.09 1019 10 16 N/A
10:53 pm 22:53 Clear 54 12.2 28 -2.2 37 37 N N/A 30.10 1019 10 16 N/A
11:53 pm 23:53 Clear 53 11.7 28 -2.2 38 38 N N/A 30.10 1019 10 16 N/A

Powered by AerisWeather